SENTINEL-6A

Last updated on Mon Sep 21 2026 00:02:46 GMT+0000 (Coordinated Universal Time)

1 46984U 20086A 26263.41620387 -.00000040 00000+0 89985-4 0 9994 2 46984 66.0408 297.2612 0007924 269.0902 90.9205 12.80929488272520
UTC large
Height (km)
Speed (km/s)
/
Latitude / Longitude
Inclination (degrees)
Orbital Period (minutes)
Azimuth
Elevation
Range (km)
Doppler Factor

Next 0 passes for location: London (51.5072 / 0.1276)

No passes found over London.
SENTINEL-6A